Regional Weather Roundup
Issued by NWS

Home | Current Version | Previous Version | Graphics & Text | Print | Product List | Glossary On
Versions: 1 2 3 4 5 6 7 8 9 10 11 12 13 14 15 16 17 18 19 20 21 22 23 24 25 26 27 28 29 30 31 32 33 34 35 36 37 38 39 40 41 42 43 44 45 46 47 48 49 50
000
ASUS43 KIND 031109
RWRIN

WEATHER ROUNDUP FOR INDIANA
NATIONAL WEATHER SERVICE INDIANAPOLIS IN
700 AM EDT WED JUN 03 2015

NOTE: "FAIR" INDICATES FEW OR NO CLOUDS BELOW 12,000 FEET WITH NO
SIGNIFICANT WEATHER AND/OR OBSTRUCTIONS TO VISIBILITY.

* - STATION DOES NOT REPORT WEATHER SUCH AS PRECIPITATION OR FOG.

+ - STATION NOT QUALITY CONTROLLED BY THE NATIONAL WEATHER SERVICE.
    USE DATA WITH CAUTION...ESPECIALLY DEWPOINT AND RELATIVE
    HUMIDITY OBSERVATIONS.

INZ001>003-010>013-019-020-031200-
NORTHWEST INDIANA

CITY           SKY/WX    TMP DP  RH WIND       PRES   REMARKS
GARY /AIRPORT/ PTCLDY    54  50  87 SE7       30.09S
KNOX *+        CLEAR     46  46 100 E3        30.09S
LA PORTE +     CLEAR     49  49 100 CALM      30.11R
MICHIGAN CITY+ PTCLDY    45  45 100 CALM      30.10R
MONTICELLO +   CLEAR     52  50  93 CALM      30.08R
RENSSELAER +   CLEAR     52  52 100 CALM      30.09R
VALPARAISO     CLEAR     49  48  97 CALM      30.10R

$$

LMZ046-743>745-031200-
SOUTHERN LAKE MICHIGAN

STATION/POSITION TIME  TEMP    WIND        PRES    WAVE
                       AIR SEA DIR/SP/G            HT
                 (UTC) (F)     (DEG/KT/KT) (MB)    (FT)
BURNS HARBOR     1100          150/  9/ 11 1019.0S
MICHIGAN CITY    1100   52     120/  8/ 10   N/A
5NW MICH CITY    1100   55 56  160/  6/  8   N/A     1

$$

INZ004-005-014>016-021>024-031200-
NORTH CENTRAL INDIANA

CITY           SKY/WX    TMP DP  RH WIND       PRES   REMARKS
ELKHART        CLEAR     48  45  87 E3        30.11
GOSHEN         CLEAR     46  44  93 CALM      30.10S
LOGANSPORT +   CLEAR     50  45  81 CALM      30.10R
PERU/GRISSOM   CLEAR     49  47  92 E2        30.08S
ROCHESTER +    CLEAR     52  46  82 CALM      30.10R
SOUTH BEND     CLEAR     50  44  80 E3        30.11R
WARSAW +       CLEAR     45  45 100 CALM      30.10S

$$

INZ006>009-017-018-025>027-031200-
NORTHEAST INDIANA

CITY           SKY/WX    TMP DP  RH WIND       PRES   REMARKS
ANGOLA *+      CLEAR     46  46 100 CALM      30.11S
AUBURN +       MOCLDY    48  46  93 E3        30.11S FOG
FORT WAYNE     PTCLDY    48  46  93 NE3       30.11R
HUNTINGTON +   CLEAR     47  46  93 CALM      30.10R

$$

INZ028-029-035-036-043>045-051>053-031200-
WEST CENTRAL INDIANA

CITY           SKY/WX    TMP DP  RH WIND       PRES   REMARKS
CRAWFORDSVL +  CLEAR     46  45  95 CALM      30.09R FOG
GREENCASTLE +  CLEAR     48  45  87 CALM      30.09R FOG
LAFAYETTE      FOG       48  48 100 CALM      30.09R VSB 1/4
TERRE HAUTE    CLEAR     51  50  96 E3        30.08R

$$

INZ030>032-037>040-046>048-054>057-064-065-031200-
CENTRAL INDIANA

CITY           SKY/WX    TMP DP  RH WIND       PRES   REMARKS
CP ATTERBURY + FOG       46  45  93 CALM      30.09S VSB<1/4
COLUMBUS       CLOUDY    50  48  93 CALM      30.08  FOG
FISHERS *+       N/A     48  48 100 CALM      30.09R
FRANKFORT +    FOG       49  49 100 CALM      30.10S VSB 3/4
GREENWOOD *+   CLEAR     50  48  93 CALM      30.09R
INDIANAPOLIS   PTCLDY    53  49  86 CALM      30.07R
-EAGLE CREEK   CLEAR     50  50 100 CALM      30.08R
KOKOMO *+      CLEAR     48  46  93 E3        30.09S
MARION +       CLEAR     49  47  95 CALM      30.10R
MT COMFORT *+    N/A     50 N/A N/A CALM      30.09S VSB 1/4
SHELBYVILLE    MOCLDY    52  49  89 E5        30.08S FOG
ZIONSVILLE +   CLEAR     51  48  90 CALM      30.09S FOG

$$

INZ033-034-041-042-049-050-058-059-031200-
EAST CENTRAL INDIANA

CITY           SKY/WX    TMP DP  RH WIND       PRES   REMARKS
MUNCIE         CLEAR     50  49  96 E5        30.09R FOG

$$

INZ060-061-067>069-081>083-085>088-031200-
SOUTHWEST INDIANA

CITY           SKY/WX    TMP DP  RH WIND       PRES   REMARKS
EVANSVILLE     CLEAR     53  52  96 CALM      30.08R FOG
HUNTINGBURG *+   N/A     52  48  87 CALM      30.08R VSB 1/2
WASHINGTON +   MOCLDY    50  47  87 CALM      30.07R FOG

$$

INZ062-063-066-070>080-084-089>092-031200-
SOUTH CENTRAL AND SOUTHEAST INDIANA

CITY           SKY/WX    TMP DP  RH WIND       PRES   REMARKS
BLOOMINGTON    CLEAR     47  46  97 CALM      30.08R FOG
MADISON *+     CLOUDY    55  52  88 CALM      30.10R
NORTH VERNON + CLOUDY    54  54 100 CALM      30.09S FOG
SEYMOUR +      CLOUDY    55  54  94 NE6       30.08S FOG

$$



USA.gov is the U.S. government's official web portal to all federal, state and local government web resources and services.